Temp
22 21 19 19 26 28 27 26 27 27 26 24 25 25 25 22 24 23 19 20 20 20 19 20 20 20 20 19 19 19 19 19 19 19 19 18 18 18 19 18 18 18 17 18 18 18 17 17 18
22 20 19 20 27 28 27 27 26 26 25 24 24 24 24 22 19 18 18 20 20 20 19 20 20 20 20 20 20 19 19 19 19 19 19 18 18 19 18 18 18 18 17 18 18 18 17 17 17
22 20 21 27 27 27 27 27 26 25 25 25 24 23 22 21 18 18 20 20 20 20 20 20 20 20 20 19 19 19 19 19 19 19 19 18 18 18 18 18 18 18 18 18 18 18 17 17 17
22 21 22 28 28 27 27 27 26 26 25 24 24 23 20 19 19 19 20 20 20 20 20 20 20 19 20 19 19 19 19 19 19 19 19 18 18 18 18 18 18 18 18 18 18 17 18 17 17
22 23 29 28 28 28 28 26 25 26 25 24 24 22 21 19 20 21 20 20 20 20 20 19 19 19 20 20 19 19 19 19 19 19 19 19 18 18 18 18 18 18 18 18 18 18 17 18 18
24 24 29 28 28 28 28 26 26 26 24 23 23 22 20 19 20 20 20 20 20 20 20 19 19 19 19 19 20 20 19 19 19 19 19 19 19 18 18 18 18 18 18 18 17 17 17 17 17
27 28 28 28 28 28 28 26 27 26 25 24 23 23 19 18 20 20 20 20 20 20 20 19 19 19 19 19 19 19 20 19 19 19 19 19 19 18 18 18 18 18 17 18 18 17 17 17 18
26 28 28 28 29 29 29 27 26 26 25 23 22 24 22 20 21 20 20 20 20 20 20 19 19 19 19 19 19 19 19 20 19 18 19 18 18 18 19 18 18 18 18 17 17 17 17 17 18
27 30 29 29 28 30 27 28 25 25 24 24 22 22 22 22 21 20 20 20 20 20 20 20 20 20 20 19 19 19 19 19 19 19 19 19 17 19 19 19 18 18 18 18 17 17 17 17 17
29 30 29 29 29 30 28 28 26 26 25 23 22 23 22 22 21 21 20 20 20 20 20 20 20 20 20 20 20 19 19 18 19 19 19 19 19 19 19 19 18 18 18 18 18 17 17 17 16
27 31 29 30 29 28 29 28 27 27 25 25 23 22 22 22 20 21 21 22 21 21 20 20 20 20 20 20 19 19 19 19 19 19 19 19 19 18 18 18 18 18 18 17 18 18 17 17 17
30 28 29 29 28 28 28 28 27 27 27 25 24 25 22 21 21 21 21 22 21 21 20 20 20 19 20 19 18 18 18 19 19 19 19 19 19 19 18 18 18 18 18 18 18 18 18 18 18
30 30 28 29 28 28 27 28 28 26 26 26 25 23 23 21 21 21 21 21 21 21 20 21 20 21 20 19 18 18 17 18 18 18 19 18 18 18 18 18 18 18 18 17 17 18 18 18 18
28 29 29 29 28 28 29 28 27 25 26 24 24 22 23 23 23 21 21 21 21 20 21 21 21 21 21 20 17 18 18 17 17 18 18 18 18 18 18 18 18 17 18 18 17 17 17 17 17
28 31 31 31 30 30 29 28 29 25 24 23 22 22 22 23 22 23 22 21 21 21 21 21 21 21 20 19 18 18 17 17 17 17 17 18 18 18 18 18 18 18 18 18 18 18 18 17 17
30 30 31 30 30 29 31 31 31 25 25 24 23 22 21 24 24 23 23 22 21 21 21 21 21 19 19 18 17 17 17 17 16 17 17 18 18 18 18 18 18 18 18 18 17 18 17 17 17
29 30 30 30 29 29 30 31 29 25 25 24 23 23 22 21 23 23 23 23 22 21 21 22 19 20 19 18 18 17 17 17 17 17 18 18 18 18 18 18 18 18 18 18 18 17 17 17 17
30 29 29 28 30 29 29 29 27 24 25 25 24 23 23 22 23 24 24 23 23 22 21 20 21 20 20 18 18 17 16 17 17 18 18 18 18 18 18 18 18 18 18 17 17 17 17 17 17
28 28 28 28 29 29 29 30 30 26 25 25 24 23 23 23 22 24 23 23 23 22 21 20 21 20 19 18 17 16 15 16 18 18 18 18 18 17 17 18 18 18 17 17 17 17 17 16 16
27 28 29 29 28 29 29 30 28 26 26 26 25 24 24 23 23 24 24 23 23 23 22 21 20 20 19 18 18 16 16 17 19 19 20 19 18 17 17 18 18 17 17 17 17 16 16 16 16
28 29 29 29 28 27 28 30 29 28 25 25 25 24 24 24 22 24 24 24 24 23 23 21 20 18 19 19 19 18 18 18 19 18 18 18 17 18 17 17 17 17 17 16 16 16 16 16 16
29 28 29 29 30 30 26 30 28 28 28 27 25 25 25 24 22 25 25 24 24 23 23 21 20 19 19 19 19 18 18 18 18 18 18 18 17 17 17 16 17 17 17 16 16 16 16 16 16
29 28 28 27 28 28 28 29 30 26 28 28 26 24 25 25 23 25 25 24 24 23 22 21 20 20 19 19 18 18 18 18 18 18 17 17 17 16 17 17 16 16 16 16 16 16 16 16 15
26 27 25 25 27 29 25 27 30 29 27 27 27 25 24 23 23 25 25 24 23 23 22 21 20 19 19 19 18 18 18 18 18 18 17 17 16 17 16 16 16 16 16 16 16 16 16 16 16
28 29 28 28 28 28 24 26 29 28 26 25 25 25 24 23 22 25 25 24 23 23 21 20 19 19 19 18 18 18 17 18 17 17 17 16 16 16 16 16 16 16 16 16 16 16 16 16 16
28 29 28 26 26 27 23 28 30 26 24 23 23 23 24 23 22 24 24 24 23 23 22 20 19 19 18 18 17 17 17 17 17 17 17 17 17 17 17 16 16 16 16 16 16 16 16 16 16
26 28 26 24 21 26 26 27 28 26 26 24 24 23 23 22 21 20 21 23 23 22 21 20 19 19 18 17 17 17 17 17 17 18 17 17 16 16 16 16 16 15 15 16 16 16 15 15 16
27 25 27 26 25 26 26 26 28 28 28 25 24 23 22 21 20 19 19 21 22 21 20 20 19 18 17 17 17 17 17 17 17 18 17 17 17 16 16 16 16 16 15 15 16 16 15 15 15
26 27 24 26 25 27 27 28 27 27 27 25 23 21 21 20 19 19 19 22 21 21 20 19 19 18 18 17 16 17 18 17 17 17 18 18 17 16 16 16 16 15 15 15 16 15 16 16 16
26 27 27 28 24 22 26 29 24 24 23 22 22 20 19 19 19 19 19 21 21 20 20 19 18 18 17 16 16 17 17 16 17 17 17 17 16 16 16 16 15 15 15 15 15 15 15 16 15
Height
1516 1517 1518 1519 1522 1516 1526 1525 1519 1518 1518 1522 1523 1523 1524 1526 1526 1535 1532 1536 1541 1544 1547 1550 1552 1553 1556 1558 1560 1561 1563 1564 1565 1567 1567 1569 1570 1571 1573 1573 1574 1575 1576 1575 1577 1578 1578 1578 1579
1515 1517 1520 1520 1520 1526 1529 1522 1523 1522 1524 1524 1524 1525 1526 1529 1531 1530 1534 1538 1543 1545 1548 1550 1553 1555 1557 1559 1561 1562 1563 1565 1566 1567 1568 1569 1571 1571 1572 1574 1575 1576 1577 1576 1577 1578 1579 1579 1580
1517 1519 1522 1517 1524 1529 1530 1524 1523 1524 1524 1524 1526 1527 1528 1532 1531 1534 1536 1539 1544 1547 1549 1552 1554 1556 1558 1560 1561 1563 1564 1566 1567 1568 1569 1569 1570 1571 1573 1574 1575 1576 1577 1577 1577 1577 1579 1580 1581
1518 1521 1523 1520 1527 1525 1525 1524 1525 1525 1526 1526 1528 1530 1534 1536 1538 1537 1539 1543 1546 1549 1551 1553 1556 1558 1559 1560 1562 1563 1565 1566 1567 1568 1569 1570 1571 1572 1574 1574 1575 1576 1577 1578 1579 1578 1579 1579 1581
1520 1521 1520 1525 1527 1524 1523 1525 1527 1526 1528 1529 1529 1533 1536 1539 1539 1540 1542 1545 1548 1550 1552 1555 1557 1558 1560 1561 1562 1564 1566 1567 1568 1569 1570 1570 1572 1573 1573 1575 1575 1576 1577 1577 1579 1579 1580 1580 1582
1522 1521 1523 1532 1529 1525 1525 1527 1527 1528 1530 1532 1532 1534 1539 1539 1541 1543 1545 1547 1550 1552 1554 1556 1558 1559 1561 1561 1563 1564 1566 1567 1569 1569 1570 1571 1572 1573 1574 1574 1575 1576 1577 1578 1578 1579 1579 1579 1582
1520 1518 1526 1527 1529 1526 1525 1529 1528 1530 1531 1533 1533 1535 1539 1539 1540 1543 1545 1548 1551 1554 1556 1558 1559 1561 1563 1564 1564 1565 1566 1568 1569 1570 1570 1571 1572 1573 1573 1574 1574 1575 1577 1578 1578 1580 1579 1580 1582
1519 1519 1525 1526 1526 1526 1523 1527 1529 1531 1532 1533 1534 1535 1538 1538 1539 1542 1546 1549 1552 1554 1556 1559 1561 1562 1563 1565 1566 1567 1567 1568 1569 1570 1571 1571 1572 1573 1574 1574 1574 1575 1576 1578 1578 1577 1579 1580 1582
1518 1519 1526 1523 1525 1520 1523 1525 1530 1531 1532 1533 1534 1535 1536 1537 1539 1542 1545 1549 1552 1555 1557 1559 1561 1562 1564 1566 1567 1568 1568 1569 1569 1569 1570 1571 1572 1572 1573 1574 1575 1575 1576 1578 1577 1577 1578 1579 1580
1516 1517 1522 1518 1517 1516 1518 1522 1527 1531 1532 1533 1534 1535 1537 1539 1540 1542 1545 1548 1552 1554 1557 1559 1561 1563 1564 1565 1566 1567 1568 1569 1569 1569 1569 1570 1571 1572 1573 1573 1574 1575 1576 1577 1578 1577 1577 1577 1579
1516 1517 1517 1516 1518 1518 1519 1523 1526 1528 1532 1530 1531 1534 1537 1539 1542 1543 1545 1549 1552 1554 1556 1558 1559 1561 1563 1565 1566 1566 1567 1568 1568 1568 1569 1569 1570 1571 1571 1573 1573 1574 1576 1577 1577 1577 1576 1576 1577
1516 1517 1517 1515 1516 1518 1520 1523 1525 1526 1527 1527 1530 1533 1537 1540 1542 1543 1547 1550 1550 1553 1555 1557 1557 1558 1560 1562 1564 1567 1567 1567 1567 1567 1568 1569 1568 1569 1570 1571 1571 1571 1572 1575 1576 1575 1575 1576 1576
1514 1515 1516 1515 1516 1518 1520 1522 1524 1525 1526 1527 1530 1534 1537 1541 1543 1545 1547 1548 1550 1552 1553 1552 1553 1554 1555 1557 1561 1566 1567 1567 1567 1566 1566 1566 1566 1566 1567 1568 1569 1569 1569 1572 1573 1574 1574 1575 1575
1515 1514 1514 1513 1514 1517 1517 1521 1523 1525 1524 1528 1531 1533 1537 1539 1541 1544 1545 1546 1549 1550 1550 1552 1553 1552 1552 1553 1555 1559 1562 1563 1564 1564 1563 1563 1563 1564 1564 1565 1567 1567 1568 1569 1571 1572 1572 1572 1573
1514 1512 1511 1512 1513 1514 1518 1523 1518 1520 1523 1527 1531 1533 1536 1537 1539 1541 1543 1545 1547 1548 1551 1552 1553 1555 1552 1552 1552 1552 1556 1558 1560 1561 1561 1560 1560 1560 1563 1562 1564 1566 1566 1567 1567 1568 1568 1569 1569
1515 1515 1520 1514 1514 1514 1514 1517 1512 1517 1520 1525 1530 1532 1535 1534 1536 1539 1541 1543 1544 1546 1549 1551 1553 1553 1551 1551 1550 1551 1553 1555 1557 1557 1558 1559 1558 1558 1560 1561 1561 1562 1563 1563 1563 1564 1564 1565 1565
1518 1525 1524 1518 1516 1515 1515 1512 1512 1515 1518 1523 1527 1529 1531 1533 1534 1537 1539 1540 1542 1545 1547 1550 1550 1551 1549 1549 1548 1548 1551 1554 1555 1556 1557 1557 1557 1557 1558 1558 1558 1558 1560 1559 1559 1559 1560 1561 1562
1526 1527 1525 1527 1517 1514 1515 1515 1513 1515 1517 1518 1522 1526 1529 1532 1532 1535 1537 1538 1540 1542 1546 1548 1549 1549 1548 1546 1544 1546 1547 1552 1554 1554 1554 1555 1555 1555 1556 1555 1556 1556 1556 1556 1556 1556 1556 1556 1557
1522 1526 1529 1520 1515 1515 1513 1512 1510 1513 1515 1516 1520 1523 1525 1529 1533 1532 1535 1536 1538 1540 1542 1547 1549 1546 1545 1545 1544 1543 1543 1549 1552 1552 1551 1553 1554 1553 1555 1554 1554 1553 1553 1554 1553 1552 1552 1552 1552
1520 1524 1523 1517 1515 1512 1514 1511 1511 1512 1512 1516 1519 1522 1524 1529 1526 1529 1532 1534 1536 1539 1540 1543 1545 1546 1544 1543 1542 1541 1542 1547 1549 1550 1551 1551 1553 1554 1554 1553 1551 1551 1551 1550 1549 1548 1547 1547 1547
1519 1520 1520 1520 1517 1517 1517 1515 1511 1510 1513 1514 1514 1515 1518 1522 1523 1526 1529 1531 1534 1536 1539 1540 1542 1542 1543 1543 1543 1543 1543 1546 1547 1548 1550 1551 1552 1552 1551 1550 1549 1548 1547 1546 1545 1544 1543 1543 1544
1518 1512 1514 1517 1516 1526 1522 1530 1517 1511 1510 1510 1508 1509 1511 1517 1521 1523 1525 1528 1532 1535 1537 1538 1539 1540 1541 1541 1542 1544 1544 1546 1547 1548 1550 1551 1550 1549 1548 1547 1545 1543 1543 1541 1540 1540 1539 1539 1540
1512 1512 1515 1519 1521 1524 1526 1526 1511 1514 1509 1507 1506 1506 1508 1516 1519 1520 1522 1526 1530 1533 1534 1535 1537 1538 1540 1539 1542 1543 1545 1546 1547 1549 1550 1549 1548 1546 1545 1543 1542 1540 1539 1538 1538 1537 1536 1536 1536
1512 1516 1521 1525 1524 1533 1536 1533 1517 1511 1512 1506 1506 1505 1506 1511 1513 1516 1520 1524 1529 1531 1532 1533 1535 1536 1538 1540 1540 1543 1544 1545 1546 1546 1547 1546 1545 1544 1543 1542 1540 1539 1538 1537 1536 1534 1534 1533 1533
1510 1514 1533 1539 1537 1538 1537 1535 1514 1507 1510 1509 1506 1504 1504 1508 1511 1514 1518 1522 1527 1531 1532 1533 1534 1535 1537 1539 1540 1542 1543 1544 1544 1544 1544 1544 1544 1543 1542 1541 1539 1537 1537 1536 1535 1533 1532 1532 1532
1511 1512 1528 1554 1548 1536 1537 1529 1508 1508 1508 1507 1504 1503 1506 1508 1511 1514 1519 1523 1528 1531 1531 1533 1535 1535 1537 1538 1541 1543 1545 1545 1543 1543 1543 1543 1543 1542 1540 1540 1539 1538 1538 1536 1535 1533 1532 1532 1532
1516 1517 1517 1536 1550 1538 1530 1519 1503 1505 1504 1504 1504 1504 1505 1507 1513 1519 1521 1525 1529 1531 1533 1534 1535 1536 1537 1539 1542 1546 1548 1546 1543 1541 1542 1542 1543 1541 1540 1539 1539 1539 1539 1538 1535 1534 1533 1532 1530
1504 1511 1522 1525 1547 1548 1533 1531 1517 1503 1500 1504 1505 1505 1507 1510 1517 1520 1522 1526 1530 1531 1533 1534 1536 1537 1537 1539 1543 1544 1546 1545 1543 1541 1541 1542 1542 1541 1540 1539 1539 1539 1540 1538 1536 1535 1533 1532 1530
1513 1511 1519 1518 1530 1531 1538 1523 1501 1501 1500 1505 1508 1508 1509 1515 1516 1516 1519 1523 1527 1530 1531 1533 1534 1535 1534 1536 1538 1542 1544 1543 1542 1541 1540 1541 1543 1543 1542 1541 1540 1540 1541 1539 1537 1536 1533 1532 1531
1500 1503 1505 1514 1538 1537 1527 1516 1502 1501 1504 1507 1508 1509 1511 1514 1515 1517 1519 1522 1527 1529 1530 1531 1532 1534 1535 1534 1538 1542 1544 1543 1542 1541 1540 1542 1544 1544 1543 1542 1542 1543 1542 1539 1538 1537 1535 1534 1532
Wind_Speed
9 12 12 3 1 4 6 6 5 5 3 3 6 1 4 6 3 2 14 25 26 23 20 17 15 16 16 16 15 14 13 13 13 13 12 12 11 10 10 8 7 6 7 5 5 5 6 6 6
11 15 5 0 3 8 6 4 5 5 9 9 9 5 6 4 4 10 21 23 25 22 20 18 16 16 16 15 14 14 14 13 13 12 12 11 11 10 9 8 7 6 7 7 4 4 6 5 7
13 7 1 2 2 5 5 3 8 8 6 4 4 8 5 4 7 21 20 26 24 21 19 18 16 15 15 15 14 13 13 13 12 11 11 11 10 10 9 8 6 6 8 6 6 4 6 6 6
7 1 1 3 7 4 2 6 6 4 6 7 6 7 6 10 9 12 20 25 23 20 19 18 16 14 13 13 13 12 12 12 11 9 9 10 10 10 8 6 5 6 7 6 6 6 4 8 9
9 1 3 4 5 3 3 8 5 3 3 6 3 5 7 4 7 13 18 23 21 20 19 18 15 14 12 12 11 11 11 11 10 9 10 9 9 8 7 5 6 6 7 8 7 5 5 8 8
3 1 3 3 4 3 4 6 2 4 3 6 10 9 5 4 8 13 17 21 19 19 18 17 15 13 12 12 12 11 11 11 10 9 9 10 9 8 6 5 4 4 6 7 5 5 5 9 8
3 1 3 3 2 0 3 7 2 2 5 3 10 6 4 7 10 15 20 19 18 18 17 16 15 13 11 11 11 11 11 10 10 10 10 10 9 7 6 6 6 5 5 4 5 4 4 8 9
3 1 4 3 4 3 6 10 1 7 1 11 4 4 6 14 14 18 20 19 18 17 16 15 14 13 11 11 11 11 10 10 10 10 9 10 8 7 6 5 4 4 5 5 6 5 4 7 10
4 1 3 4 6 4 10 9 7 4 10 3 2 4 10 18 19 21 22 20 19 18 17 15 13 12 11 11 11 11 11 11 11 10 10 10 8 8 7 6 5 4 4 5 6 6 5 6 10
1 2 1 1 4 5 15 12 12 5 10 2 4 5 18 18 20 23 24 22 21 19 16 14 12 11 11 12 12 12 12 12 12 11 11 10 9 8 8 7 6 4 3 4 5 7 7 7 8
1 3 3 0 4 6 13 10 9 6 8 8 13 18 22 20 20 22 21 20 19 17 14 13 12 11 11 12 13 13 13 12 12 12 11 11 10 9 8 6 5 5 5 5 5 6 7 8 9
2 2 3 1 3 8 11 12 7 12 1 3 13 19 24 21 21 23 21 19 18 16 13 12 13 13 12 14 14 13 13 13 12 11 11 11 11 12 9 7 8 7 7 7 6 6 7 8 8
1 2 3 2 3 8 11 10 4 11 4 6 18 22 21 21 20 21 19 19 17 17 16 13 13 12 16 17 14 12 14 14 13 12 12 12 12 12 11 10 9 9 11 9 9 8 6 8 8
2 4 4 2 4 9 13 7 5 6 6 15 20 22 21 20 20 20 22 20 18 19 17 15 2 7 15 19 17 17 17 17 17 15 13 13 13 13 13 12 11 9 10 11 10 10 10 8 9
3 4 2 1 4 4 11 4 13 10 15 19 19 20 20 20 20 19 18 20 20 19 14 17 15 8 11 21 19 18 19 21 18 17 16 15 13 13 12 12 11 9 9 11 11 13 14 14 14
2 2 3 2 2 4 13 8 12 15 21 20 19 19 19 21 20 16 17 19 21 20 15 9 13 7 11 14 19 17 16 14 13 10 12 14 12 15 13 12 11 13 14 14 14 14 16 17 16
5 2 4 5 4 2 11 4 2 16 18 19 21 21 20 19 21 19 17 18 20 21 20 11 15 10 16 15 22 18 16 13 10 10 11 14 12 12 13 11 13 15 13 13 14 15 18 19 18
2 1 3 5 1 4 8 6 2 14 17 22 22 21 20 20 23 19 17 17 18 20 20 16 9 11 13 13 18 15 10 11 6 2 4 7 9 11 10 9 8 10 11 12 15 18 19 18 19
5 1 4 4 1 3 7 6 7 13 16 18 20 21 21 21 15 20 20 19 18 19 19 18 12 9 7 6 8 8 9 13 9 4 1 5 6 8 8 8 8 9 11 12 13 14 17 19 20
2 2 3 3 5 2 2 3 3 8 11 14 15 18 20 15 19 20 21 20 19 17 16 14 13 7 2 3 2 5 11 15 9 3 3 5 6 7 8 9 9 10 13 14 15 18 18 18 17
3 3 2 2 3 3 2 1 2 1 9 5 13 20 21 22 20 21 19 19 17 16 12 10 12 4 6 7 7 10 14 12 9 6 5 6 5 7 9 9 10 12 15 17 17 17 17 17 15
4 6 3 1 1 2 5 2 4 3 7 6 8 18 23 23 20 21 19 17 16 14 10 11 10 7 9 7 9 10 11 8 6 5 5 3 5 7 7 10 13 13 13 12 12 13 13 14 16
3 3 4 3 3 2 3 3 1 1 4 7 6 8 17 15 18 22 20 17 14 12 10 13 11 9 11 11 12 11 10 9 7 6 2 3 5 7 9 9 9 9 7 6 7 9 11 13 15
11 5 5 3 1 3 1 2 2 3 4 8 8 6 9 12 16 19 19 19 16 12 12 15 13 12 12 15 14 10 7 9 7 3 3 6 6 7 8 7 6 6 5 4 6 7 7 10 11
3 4 1 2 4 2 2 3 4 3 6 8 12 10 7 9 14 19 19 20 16 11 9 15 13 15 14 17 12 8 6 6 4 4 5 6 6 7 6 5 5 6 4 4 4 5 4 3 7
4 4 3 3 3 3 2 3 1 2 6 7 8 10 5 7 12 15 17 17 11 9 11 12 13 17 15 14 11 8 6 5 4 5 7 7 7 7 7 6 6 7 7 5 3 3 3 1 3
5 4 4 6 1 3 1 3 8 3 2 3 4 2 4 7 9 10 13 14 12 10 10 9 10 15 13 13 10 7 4 3 4 7 8 8 8 9 8 7 6 7 7 7 6 4 2 2 1
2 9 4 1 5 4 2 3 3 3 5 1 2 0 1 3 2 7 11 15 11 9 8 7 8 11 12 13 9 7 5 3 5 8 8 9 9 9 9 8 8 8 7 7 7 6 5 4 3
4 4 5 4 2 4 3 3 5 6 3 1 3 3 4 6 3 8 15 15 11 9 7 7 8 11 12 10 10 5 3 4 6 8 10 10 9 10 9 10 10 9 9 11 10 9 10 9 8
1 5 6 5 5 0 2 4 1 4 3 2 1 4 7 8 3 4 10 17 14 12 9 7 7 8 9 12 12 8 7 6 8 9 11 11 9 10 11 11 9 9 9 11 11 12 12 10 10
Wind_Direction
141 132 134 99 173 84 63 53 350 73 76 63 121 86 83 46 15 47 153 160 160 155 154 151 151 156 160 159 158 158 160 157 151 151 152 155 158 158 157 152 150 147 127 119 119 142 138 148 149
136 133 109 119 58 81 69 12 57 48 100 90 77 71 57 66 51 135 148 158 162 157 158 158 153 155 157 155 156 159 159 157 156 156 156 161 161 159 159 156 155 145 142 130 130 143 147 146 143
132 87 354 30 62 52 84 84 118 106 36 72 98 51 30 27 110 139 158 159 164 162 161 162 158 156 154 154 157 159 161 160 159 158 160 161 164 165 169 158 151 148 148 158 139 146 156 146 138
144 51 28 31 48 64 51 137 142 103 67 66 81 69 66 101 123 143 150 160 168 166 165 166 163 160 158 160 158 160 164 164 163 163 165 166 166 170 173 162 159 155 142 149 169 178 157 160 160
143 57 56 64 22 355 93 142 147 27 61 87 84 98 97 124 130 154 159 159 169 170 169 169 168 167 167 166 165 166 168 170 170 168 169 170 172 175 181 181 180 162 157 167 172 180 186 180 184
153 261 78 60 16 13 116 148 137 38 63 108 95 112 114 144 140 159 163 166 172 174 170 173 174 176 179 175 173 174 175 176 174 176 174 173 179 181 180 182 187 177 170 167 177 168 170 192 185
276 164 93 135 97 287 170 166 208 103 130 104 130 122 133 158 160 164 166 171 174 179 175 175 179 185 188 189 186 183 182 181 178 180 178 175 177 179 183 180 178 176 166 168 175 184 160 188 186
223 154 124 170 184 240 173 169 189 157 100 144 117 148 167 175 161 163 167 172 176 179 182 184 189 193 198 199 197 196 192 187 187 187 185 180 181 187 191 181 180 178 170 173 173 184 178 186 196
180 151 151 194 174 189 163 186 143 142 146 157 167 141 167 165 159 163 169 176 181 185 187 190 197 201 204 209 206 204 202 200 196 191 190 189 194 193 191 183 182 187 193 176 187 197 191 182 197
174 83 136 233 233 205 173 187 163 152 169 164 119 149 165 169 163 171 175 180 185 190 191 194 201 210 212 213 211 212 206 206 202 198 197 199 200 196 198 193 188 190 216 205 198 202 201 195 195
169 116 190 28 224 187 182 165 172 158 213 212 172 158 173 172 172 177 178 184 185 191 194 200 206 215 223 227 221 219 214 214 210 206 204 206 204 204 199 197 215 220 245 245 230 208 213 212 210
251 102 228 98 168 170 179 158 185 197 75 275 174 165 172 177 183 183 183 188 192 194 198 208 216 220 231 232 231 233 230 223 221 219 217 216 215 216 220 218 236 263 251 258 239 227 215 213 222
73 10 234 224 218 170 152 179 193 221 305 159 164 166 174 184 191 193 192 194 195 199 204 206 218 224 228 231 238 252 255 244 238 230 229 230 222 214 224 234 248 245 241 249 246 239 230 215 222
293 289 286 242 147 176 187 175 182 179 174 157 167 173 180 184 194 200 204 203 202 204 206 204 170 243 256 232 222 234 237 246 248 245 232 228 229 235 236 238 242 248 241 253 254 250 240 234 231
13 329 60 15 137 173 180 199 228 175 175 169 175 183 185 189 199 205 203 210 212 210 208 208 238 296 286 240 227 223 238 236 256 250 251 241 243 246 247 248 247 248 243 244 255 254 253 250 245
60 58 330 11 217 169 191 257 227 179 175 178 183 190 193 196 198 203 211 217 221 221 217 233 188 284 314 254 228 231 224 245 251 246 264 256 260 255 256 250 249 250 251 255 255 266 260 256 253
35 333 325 350 296 229 217 254 219 182 185 183 189 195 199 204 209 206 214 222 232 237 231 253 214 280 293 301 228 239 234 239 237 238 255 247 245 247 251 262 271 248 260 260 267 266 265 260 257
162 15 298 274 21 216 210 268 149 191 196 195 193 196 205 210 214 213 213 227 242 245 245 254 272 270 305 311 244 252 222 215 201 346 274 247 254 241 243 249 253 254 265 272 274 272 267 264 254
124 136 272 270 274 241 202 222 226 200 212 212 202 201 208 213 219 223 225 230 241 249 255 237 250 281 292 307 299 275 215 202 219 314 131 219 261 252 245 265 273 275 277 274 272 274 270 266 259
133 163 243 280 344 210 193 178 326 203 232 238 217 214 218 207 220 225 228 233 244 251 260 241 233 269 222 50 49 142 145 193 211 136 348 249 243 262 275 276 280 281 279 272 270 272 270 263 256
171 207 197 294 344 81 341 122 325 193 248 263 230 222 219 214 213 224 223 225 236 247 244 228 216 219 168 119 129 138 147 169 163 152 196 213 239 272 280 281 280 284 282 279 273 269 262 257 254
197 209 189 262 308 21 351 293 246 314 315 325 284 216 219 215 213 228 229 227 228 231 237 216 207 210 183 156 142 146 143 151 161 158 172 212 278 288 291 289 289 286 282 278 272 263 257 247 251
105 111 134 94 91 212 31 272 266 244 241 342 353 212 222 218 209 225 229 227 224 218 226 221 213 209 191 175 157 155 169 177 170 164 202 304 318 315 315 315 305 300 294 283 276 276 267 258 250
142 109 74 77 120 236 44 288 200 305 337 316 329 268 226 208 211 220 222 221 209 214 222 212 216 199 185 173 168 176 178 166 154 135 16 343 342 353 344 334 334 328 309 298 301 307 286 260 250
142 156 224 233 208 238 140 243 264 282 327 288 293 289 227 195 203 213 215 207 211 222 209 206 213 197 182 176 181 180 168 152 114 61 22 15 16 5 357 356 360 1 336 307 319 334 340 277 252
162 216 212 236 215 168 154 228 179 78 304 313 283 255 235 200 200 208 205 207 208 199 206 210 217 202 190 186 188 178 174 156 97 49 36 33 22 11 18 18 25 23 18 1 338 342 346 292 241
157 179 86 109 100 252 311 258 277 138 238 7 25 103 197 219 202 181 190 192 187 211 200 214 217 208 202 198 199 182 179 134 79 58 56 50 34 35 41 35 31 23 27 31 40 46 53 45 359
239 136 154 140 178 221 197 274 259 274 234 62 79 11 321 260 124 153 172 180 188 186 196 193 207 219 216 208 199 172 171 102 78 78 78 61 44 42 52 54 53 49 46 48 50 57 58 54 66
144 172 68 105 324 195 219 233 221 261 265 128 33 357 358 28 97 189 191 192 184 191 202 210 219 231 232 208 158 154 166 121 78 88 85 71 56 53 63 62 61 61 66 66 61 62 64 61 60
190 190 172 195 187 103 296 225 47 221 222 130 78 31 45 48 137 198 203 188 182 196 212 228 241 262 272 192 147 182 161 121 104 99 85 71 63 62 68 72 69 69 69 71 69 64 62 63 66